Time,TemperatureF,DewpointF,PressureIn,WindDirection,WindDirectionDegrees,WindSpeedMPH,WindSpeedGustMPH,Humidity,HourlyPrecipIn,Conditions,Clouds,dailyrainin,SoftwareType,DateUTC
2013-05-03 00:03:00,50.0,-99.9,30.42,ENE,68,9.0,-999.0,-999,-99.99,,,-99.99,,2013-05-03 04:03:00,
2013-05-03 00:13:00,50.0,-99.9,30.42,ENE,68,9.0,-999.0,-999,-99.99,,,-99.99,,2013-05-03 04:13:00,
2013-05-03 00:23:00,49.0,-99.9,30.42,NE,34,8.0,-999.0,-999,-99.99,,,-99.99,,2013-05-03 04:23:00,
2013-05-03 00:33:00,49.0,-99.9,30.42,NE,34,8.0,-999.0,-999,-99.99,,,-99.99,,2013-05-03 04:33:00,
2013-05-03 00:43:00,49.0,-99.9,30.42,NNE,26,12.0,-999.0,-999,-99.99,,,-99.99,,2013-05-03 04:43:00,
2013-05-03 00:53:00,49.0,-99.9,30.42,NNE,26,12.0,-999.0,-999,-99.99,,,-99.99,,2013-05-03 04:53:00,
2013-05-03 01:03:00,49.0,-99.9,30.42,NNE,26,12.0,-999.0,-999,-99.99,,,-99.99,,2013-05-03 05:03:00,
2013-05-03 01:12:00,49.0,-99.9,30.42,NNE,26,12.0,-999.0,-999,-99.99,,,-99.99,,2013-05-03 05:12:00,
2013-05-03 01:22:00,48.0,-99.9,30.42,NE,36,9.0,-999.0,-999,-99.99,,,-99.99,,2013-05-03 05:22:00,
2013-05-03 01:32:00,48.0,-99.9,30.42,NE,36,9.0,-999.0,-999,-99.99,,,-99.99,,2013-05-03 05:32:00,
2013-05-03 01:42:00,48.0,-99.9,30.41,NE,53,9.0,-999.0,-999,-99.99,,,-99.99,,2013-05-03 05:42:00,
2013-05-03 01:52:00,48.0,-99.9,30.41,NE,53,9.0,-999.0,-999,-99.99,,,-99.99,,2013-05-03 05:52:00,
2013-05-03 02:02:00,48.0,-99.9,30.41,NE,53,9.0,-999.0,-999,-99.99,,,-99.99,,2013-05-03 06:02:00,
2013-05-03 02:12:00,48.0,-99.9,30.41,NE,53,9.0,-999.0,-999,-99.99,,,-99.99,,2013-05-03 06:12:00,
2013-05-03 02:22:00,48.0,-99.9,30.40,NE,44,9.0,-999.0,-999,-99.99,,,-99.99,,2013-05-03 06:22:00,
2013-05-03 02:32:00,48.0,-99.9,30.40,NE,44,9.0,-999.0,-999,-99.99,,,-99.99,,2013-05-03 06:32:00,
2013-05-03 02:42:00,47.0,-99.9,30.40,NE,47,9.0,-999.0,-999,-99.99,,,-99.99,,2013-05-03 06:42:00,
2013-05-03 02:52:00,47.0,-99.9,30.40,NE,47,9.0,-999.0,-999,-99.99,,,-99.99,,2013-05-03 06:52:00,
2013-05-03 03:02:00,47.0,-99.9,30.40,NE,47,9.0,-999.0,-999,-99.99,,,-99.99,,2013-05-03 07:02:00,
2013-05-03 03:11:00,47.0,-99.9,30.40,NE,47,9.0,-999.0,-999,-99.99,,,-99.99,,2013-05-03 07:11:00,
2013-05-03 03:22:00,47.0,-99.9,30.40,NE,42,8.0,-999.0,-999,-99.99,,,-99.99,,2013-05-03 07:22:00,
2013-05-03 03:32:00,47.0,-99.9,30.40,NE,42,8.0,-999.0,-999,-99.99,,,-99.99,,2013-05-03 07:32:00,
2013-05-03 03:42:00,47.0,-99.9,30.40,NE,42,8.0,-999.0,-999,-99.99,,,-99.99,,2013-05-03 07:42:00,
2013-05-03 03:52:00,47.0,-99.9,30.40,NE,43,7.0,-999.0,-999,-99.99,,,-99.99,,2013-05-03 07:52:00,
2013-05-03 04:02:00,47.0,-99.9,30.40,NE,43,7.0,-999.0,-999,-99.99,,,-99.99,,2013-05-03 08:02:00,
2013-05-03 04:12:00,47.0,-99.9,30.40,NE,43,7.0,-999.0,-999,-99.99,,,-99.99,,2013-05-03 08:12:00,
2013-05-03 04:22:00,47.0,-99.9,30.41,NE,35,11.0,-999.0,-999,-99.99,,,-99.99,,2013-05-03 08:22:00,
2013-05-03 04:32:00,47.0,-99.9,30.41,NE,35,11.0,-999.0,-999,-99.99,,,-99.99,,2013-05-03 08:32:00,
2013-05-03 04:42:00,46.0,-99.9,30.41,NE,43,9.0,-999.0,-999,-99.99,,,-99.99,,2013-05-03 08:42:00,
2013-05-03 04:53:00,46.0,-99.9,30.41,NE,43,9.0,-999.0,-999,-99.99,,,-99.99,,2013-05-03 08:53:00,
2013-05-03 05:01:00,46.0,-99.9,30.41,NE,43,9.0,-999.0,-999,-99.99,,,-99.99,,2013-05-03 09:01:00,
2013-05-03 05:12:00,46.0,-99.9,30.41,NE,43,9.0,-999.0,-999,-99.99,,,-99.99,,2013-05-03 09:12:00,
2013-05-03 05:21:00,46.0,-99.9,30.41,NE,46,9.0,-999.0,-999,-99.99,,,-99.99,,2013-05-03 09:21:00,
2013-05-03 05:33:00,46.0,-99.9,30.41,NE,46,9.0,-999.0,-999,-99.99,,,-99.99,,2013-05-03 09:33:00,
2013-05-03 05:43:00,46.0,-99.9,30.41,NE,46,9.0,-999.0,-999,-99.99,,,-99.99,,2013-05-03 09:43:00,
2013-05-03 05:53:00,46.0,-99.9,30.42,NE,36,10.0,-999.0,-999,-99.99,,,-99.99,,2013-05-03 09:53:00,
2013-05-03 06:03:00,46.0,-99.9,30.42,NE,36,10.0,-999.0,-999,-99.99,,,-99.99,,2013-05-03 10:03:00,
2013-05-03 06:13:00,46.0,-99.9,30.42,NE,36,10.0,-999.0,-999,-99.99,,,-99.99,,2013-05-03 10:13:00,
2013-05-03 06:22:00,46.0,-99.9,30.43,NE,40,9.0,-999.0,-999,-99.99,,,-99.99,,2013-05-03 10:22:00,
2013-05-03 06:32:00,46.0,-99.9,30.43,NE,40,9.0,-999.0,-999,-99.99,,,-99.99,,2013-05-03 10:32:00,
2013-05-03 06:42:00,47.0,-99.9,30.44,NNE,33,11.0,-999.0,-999,-99.99,,,-99.99,,2013-05-03 10:42:00,
2013-05-03 06:52:00,47.0,-99.9,30.44,NNE,33,11.0,-999.0,-999,-99.99,,,-99.99,,2013-05-03 10:52:00,
2013-05-03 07:02:00,47.0,-99.9,30.44,NNE,33,11.0,-999.0,-999,-99.99,,,-99.99,,2013-05-03 11:02:00,
2013-05-03 07:11:00,47.0,-99.9,30.44,NNE,33,11.0,-999.0,-999,-99.99,,,-99.99,,2013-05-03 11:11:00,
2013-05-03 07:22:00,48.0,-99.9,30.44,NE,46,11.0,-999.0,-999,-99.99,,,-99.99,,2013-05-03 11:22:00,
2013-05-03 07:32:00,48.0,-99.9,30.44,NE,46,11.0,-999.0,-999,-99.99,,,-99.99,,2013-05-03 11:32:00,
2013-05-03 07:42:00,48.0,-99.9,30.44,NE,46,11.0,-999.0,-999,-99.99,,,-99.99,,2013-05-03 11:42:00,
2013-05-03 07:52:00,49.0,-99.9,30.44,NE,50,12.0,-999.0,-999,-99.99,,,-99.99,,2013-05-03 11:52:00,
2013-05-03 08:02:00,49.0,-99.9,30.44,NE,50,12.0,-999.0,-999,-99.99,,,-99.99,,2013-05-03 12:02:00,
2013-05-03 08:12:00,49.0,-99.9,30.44,NE,50,12.0,-999.0,-999,-99.99,,,-99.99,,2013-05-03 12:12:00,
2013-05-03 08:22:00,50.0,-99.9,30.45,ENE,63,15.0,-999.0,-999,-99.99,,,-99.99,,2013-05-03 12:22:00,
2013-05-03 08:32:00,50.0,-99.9,30.45,ENE,63,15.0,-999.0,-999,-99.99,,,-99.99,,2013-05-03 12:32:00,
2013-05-03 08:42:00,50.0,-99.9,30.45,ENE,63,15.0,-999.0,-999,-99.99,,,-99.99,,2013-05-03 12:42:00,
2013-05-03 08:52:00,51.0,-99.9,30.45,ENE,67,15.0,-999.0,-999,-99.99,,,-99.99,,2013-05-03 12:52:00,
2013-05-03 09:01:00,51.0,-99.9,30.45,ENE,67,15.0,-999.0,-999,-99.99,,,-99.99,,2013-05-03 13:01:00,
2013-05-03 09:11:00,51.0,-99.9,30.45,ENE,67,15.0,-999.0,-999,-99.99,,,-99.99,,2013-05-03 13:11:00,
2013-05-03 09:22:00,51.0,-99.9,30.45,ENE,74,17.0,-999.0,-999,-99.99,,,-99.99,,2013-05-03 13:22:00,
2013-05-03 09:32:00,51.0,-99.9,30.45,ENE,74,17.0,-999.0,-999,-99.99,,,-99.99,,2013-05-03 13:32:00,
2013-05-03 09:42:00,51.0,-99.9,30.45,ENE,74,17.0,-999.0,-999,-99.99,,,-99.99,,2013-05-03 13:42:00,
2013-05-03 09:52:00,51.0,-99.9,30.45,ESE,112,17.0,-999.0,-999,-99.99,,,-99.99,,2013-05-03 13:52:00,
2013-05-03 10:02:00,51.0,-99.9,30.45,ESE,112,17.0,-999.0,-999,-99.99,,,-99.99,,2013-05-03 14:02:00,
2013-05-03 10:11:00,51.0,-99.9,30.45,ESE,112,17.0,-999.0,-999,-99.99,,,-99.99,,2013-05-03 14:11:00,
2013-05-03 10:22:00,50.0,-99.9,30.45,ENE,72,18.0,-999.0,-999,-99.99,,,-99.99,,2013-05-03 14:22:00,
2013-05-03 10:32:00,50.0,-99.9,30.45,ENE,72,18.0,-999.0,-999,-99.99,,,-99.99,,2013-05-03 14:32:00,
2013-05-03 10:42:00,51.0,-99.9,30.45,East,86,21.0,-999.0,-999,-99.99,,,-99.99,,2013-05-03 14:42:00,
2013-05-03 10:52:00,51.0,-99.9,30.45,East,86,21.0,-999.0,-999,-99.99,,,-99.99,,2013-05-03 14:52:00,
2013-05-03 11:01:00,51.0,-99.9,30.45,East,86,21.0,-999.0,-999,-99.99,,,-99.99,,2013-05-03 15:01:00,
2013-05-03 11:11:00,51.0,-99.9,30.45,East,86,21.0,-999.0,-999,-99.99,,,-99.99,,2013-05-03 15:11:00,
2013-05-03 11:22:00,52.0,-99.9,30.45,East,94,9.0,-999.0,-999,-99.99,,,-99.99,,2013-05-03 15:22:00,
2013-05-03 11:32:00,52.0,-99.9,30.45,East,94,9.0,-999.0,-999,-99.99,,,-99.99,,2013-05-03 15:32:00,
2013-05-03 11:43:00,52.0,-99.9,30.45,East,94,9.0,-999.0,-999,-99.99,,,-99.99,,2013-05-03 15:43:00,
2013-05-03 11:53:00,52.0,-99.9,30.44,NE,46,14.0,-999.0,-999,-99.99,,,-99.99,,2013-05-03 15:53:00,
2013-05-03 12:03:00,52.0,-99.9,30.44,NE,46,14.0,-999.0,-999,-99.99,,,-99.99,,2013-05-03 16:03:00,
2013-05-03 12:13:00,52.0,-99.9,30.44,NE,46,14.0,-999.0,-999,-99.99,,,-99.99,,2013-05-03 16:13:00,
2013-05-03 12:23:00,52.0,-99.9,30.44,East,100,14.0,-999.0,-999,-99.99,,,-99.99,,2013-05-03 16:23:00,
2013-05-03 12:33:00,52.0,-99.9,30.44,East,100,14.0,-999.0,-999,-99.99,,,-99.99,,2013-05-03 16:33:00,
2013-05-03 12:42:00,53.0,-99.9,30.42,ENE,63,19.0,-999.0,-999,-99.99,,,-99.99,,2013-05-03 16:42:00,
2013-05-03 12:52:00,53.0,-99.9,30.42,ENE,63,19.0,-999.0,-999,-99.99,,,-99.99,,2013-05-03 16:52:00,
2013-05-03 13:02:00,53.0,-99.9,30.42,ENE,63,19.0,-999.0,-999,-99.99,,,-99.99,,2013-05-03 17:02:00,
2013-05-03 13:12:00,53.0,-99.9,30.42,ENE,63,19.0,-999.0,-999,-99.99,,,-99.99,,2013-05-03 17:12:00,
2013-05-03 13:23:00,53.0,-99.9,30.43,NE,55,13.0,-999.0,-999,-99.99,,,-99.99,,2013-05-03 17:23:00,
2013-05-03 13:32:00,53.0,-99.9,30.43,NE,55,13.0,-999.0,-999,-99.99,,,-99.99,,2013-05-03 17:32:00,
2013-05-03 13:42:00,53.0,-99.9,30.43,NE,55,13.0,-999.0,-999,-99.99,,,-99.99,,2013-05-03 17:42:00,
2013-05-03 13:52:00,52.0,-99.9,30.42,NE,54,16.0,-999.0,-999,-99.99,,,-99.99,,2013-05-03 17:52:00,
2013-05-03 14:01:00,52.0,-99.9,30.42,NE,54,16.0,-999.0,-999,-99.99,,,-99.99,,2013-05-03 18:01:00,
2013-05-03 14:12:00,52.0,-99.9,30.42,NE,54,16.0,-999.0,-999,-99.99,,,-99.99,,2013-05-03 18:12:00,
2013-05-03 14:22:00,54.0,-99.9,30.41,ESE,109,15.0,-999.0,-999,-99.99,,,-99.99,,2013-05-03 18:22:00,
2013-05-03 14:32:00,54.0,-99.9,30.41,ESE,109,15.0,-999.0,-999,-99.99,,,-99.99,,2013-05-03 18:32:00,
2013-05-03 14:42:00,54.0,-99.9,30.41,East,88,14.0,-999.0,-999,-99.99,,,-99.99,,2013-05-03 18:42:00,
2013-05-03 14:52:00,54.0,-99.9,30.41,East,88,14.0,-999.0,-999,-99.99,,,-99.99,,2013-05-03 18:52:00,
2013-05-03 15:01:00,54.0,-99.9,30.41,East,88,14.0,-999.0,-999,-99.99,,,-99.99,,2013-05-03 19:01:00,
2013-05-03 15:11:00,54.0,-99.9,30.41,East,88,14.0,-999.0,-999,-99.99,,,-99.99,,2013-05-03 19:11:00,
2013-05-03 15:22:00,54.0,-99.9,30.40,East,95,14.0,-999.0,-999,-99.99,,,-99.99,,2013-05-03 19:22:00,
2013-05-03 15:32:00,54.0,-99.9,30.40,East,95,14.0,-999.0,-999,-99.99,,,-99.99,,2013-05-03 19:32:00,
2013-05-03 15:42:00,54.0,-99.9,30.40,East,95,14.0,-999.0,-999,-99.99,,,-99.99,,2013-05-03 19:42:00,
2013-05-03 15:52:00,55.0,-99.9,30.39,NE,50,16.0,-999.0,-999,-99.99,,,-99.99,,2013-05-03 19:52:00,
2013-05-03 16:02:00,55.0,-99.9,30.39,NE,50,16.0,-999.0,-999,-99.99,,,-99.99,,2013-05-03 20:02:00,
2013-05-03 16:12:00,55.0,-99.9,30.39,NE,50,16.0,-999.0,-999,-99.99,,,-99.99,,2013-05-03 20:12:00,
2013-05-03 16:22:00,55.0,-99.9,30.38,East,86,12.0,-999.0,-999,-99.99,,,-99.99,,2013-05-03 20:22:00,
2013-05-03 16:32:00,55.0,-99.9,30.38,East,86,12.0,-999.0,-999,-99.99,,,-99.99,,2013-05-03 20:32:00,
2013-05-03 16:42:00,54.0,-99.9,30.37,NE,46,15.0,-999.0,-999,-99.99,,,-99.99,,2013-05-03 20:42:00,
2013-05-03 16:53:00,54.0,-99.9,30.37,NE,46,15.0,-999.0,-999,-99.99,,,-99.99,,2013-05-03 20:53:00,
2013-05-03 17:02:00,54.0,-99.9,30.37,NE,46,15.0,-999.0,-999,-99.99,,,-99.99,,2013-05-03 21:02:00,
2013-05-03 17:11:00,54.0,-99.9,30.37,NE,46,15.0,-999.0,-999,-99.99,,,-99.99,,2013-05-03 21:11:00,
2013-05-03 17:22:00,55.0,-99.9,30.37,East,87,10.0,-999.0,-999,-99.99,,,-99.99,,2013-05-03 21:22:00,
2013-05-03 17:33:00,55.0,-99.9,30.37,East,87,10.0,-999.0,-999,-99.99,,,-99.99,,2013-05-03 21:33:00,
2013-05-03 17:43:00,55.0,-99.9,30.37,East,87,10.0,-999.0,-999,-99.99,,,-99.99,,2013-05-03 21:43:00,
2013-05-03 17:53:00,55.0,-99.9,30.36,ESE,102,12.0,-999.0,-999,-99.99,,,-99.99,,2013-05-03 21:53:00,
2013-05-03 18:03:00,55.0,-99.9,30.36,ESE,102,12.0,-999.0,-999,-99.99,,,-99.99,,2013-05-03 22:03:00,
2013-05-03 18:13:00,55.0,-99.9,30.36,ESE,102,12.0,-999.0,-999,-99.99,,,-99.99,,2013-05-03 22:13:00,
2013-05-03 18:22:00,54.0,-99.9,30.37,ENE,66,11.0,-999.0,-999,-99.99,,,-99.99,,2013-05-03 22:22:00,
2013-05-03 18:32:00,54.0,-99.9,30.37,ENE,66,11.0,-999.0,-999,-99.99,,,-99.99,,2013-05-03 22:32:00,
2013-05-03 18:42:00,54.0,-99.9,30.37,ENE,66,11.0,-999.0,-999,-99.99,,,-99.99,,2013-05-03 22:42:00,
2013-05-03 18:52:00,54.0,-99.9,30.36,NE,51,10.0,-999.0,-999,-99.99,,,-99.99,,2013-05-03 22:52:00,
2013-05-03 19:02:00,54.0,-99.9,30.36,NE,51,10.0,-999.0,-999,-99.99,,,-99.99,,2013-05-03 23:02:00,
2013-05-03 19:11:00,54.0,-99.9,30.36,NE,51,10.0,-999.0,-999,-99.99,,,-99.99,,2013-05-03 23:11:00,
2013-05-03 19:22:00,53.0,-99.9,30.36,NE,54,10.0,-999.0,-999,-99.99,,,-99.99,,2013-05-03 23:22:00,
2013-05-03 19:32:00,53.0,-99.9,30.36,NE,54,10.0,-999.0,-999,-99.99,,,-99.99,,2013-05-03 23:32:00,
2013-05-03 19:41:00,53.0,-99.9,30.36,NE,54,10.0,-999.0,-999,-99.99,,,-99.99,,2013-05-03 23:41:00,
2013-05-03 19:52:00,51.0,-99.9,30.36,ENE,71,12.0,-999.0,-999,-99.99,,,-99.99,,2013-05-03 23:52:00,
2013-05-03 20:01:00,51.0,-99.9,30.36,ENE,71,12.0,-999.0,-999,-99.99,,,-99.99,,2013-05-04 00:01:00,
2013-05-03 20:11:00,51.0,-99.9,30.36,ENE,71,12.0,-999.0,-999,-99.99,,,-99.99,,2013-05-04 00:11:00,
2013-05-03 20:23:00,50.0,-99.9,30.37,ENE,58,9.0,-999.0,-999,-99.99,,,-99.99,,2013-05-04 00:23:00,
2013-05-03 20:32:00,50.0,-99.9,30.37,ENE,58,9.0,-999.0,-999,-99.99,,,-99.99,,2013-05-04 00:32:00,
2013-05-03 20:42:00,50.0,-99.9,30.37,ENE,58,9.0,-999.0,-999,-99.99,,,-99.99,,2013-05-04 00:42:00,
2013-05-03 20:52:00,49.0,-99.9,30.37,ENE,78,6.0,-999.0,-999,-99.99,,,-99.99,,2013-05-04 00:52:00,
2013-05-03 21:01:00,49.0,-99.9,30.37,ENE,78,6.0,-999.0,-999,-99.99,,,-99.99,,2013-05-04 01:01:00,
2013-05-03 21:11:00,49.0,-99.9,30.37,ENE,78,6.0,-999.0,-999,-99.99,,,-99.99,,2013-05-04 01:11:00,
2013-05-03 21:22:00,48.0,-99.9,30.37,ENE,65,5.0,-999.0,-999,-99.99,,,-99.99,,2013-05-04 01:22:00,
2013-05-03 21:32:00,48.0,-99.9,30.37,ENE,65,5.0,-999.0,-999,-99.99,,,-99.99,,2013-05-04 01:32:00,
2013-05-03 21:42:00,48.0,-99.9,30.37,NE,52,8.0,-999.0,-999,-99.99,,,-99.99,,2013-05-04 01:42:00,
2013-05-03 21:52:00,48.0,-99.9,30.37,NE,52,8.0,-999.0,-999,-99.99,,,-99.99,,2013-05-04 01:52:00,
2013-05-03 22:02:00,48.0,-99.9,30.37,NE,52,8.0,-999.0,-999,-99.99,,,-99.99,,2013-05-04 02:02:00,
2013-05-03 22:11:00,48.0,-99.9,30.37,NE,52,8.0,-999.0,-999,-99.99,,,-99.99,,2013-05-04 02:11:00,
2013-05-03 22:22:00,47.0,-99.9,30.37,NE,43,9.0,-999.0,-999,-99.99,,,-99.99,,2013-05-04 02:22:00,
2013-05-03 22:32:00,47.0,-99.9,30.37,NE,43,9.0,-999.0,-999,-99.99,,,-99.99,,2013-05-04 02:32:00,
2013-05-03 22:42:00,47.0,-99.9,30.37,NE,43,9.0,-999.0,-999,-99.99,,,-99.99,,2013-05-04 02:42:00,
2013-05-03 22:52:00,47.0,-99.9,30.35,NE,41,9.0,-999.0,-999,-99.99,,,-99.99,,2013-05-04 02:52:00,
2013-05-03 23:02:00,47.0,-99.9,30.35,NE,41,9.0,-999.0,-999,-99.99,,,-99.99,,2013-05-04 03:02:00,
2013-05-03 23:11:00,47.0,-99.9,30.35,NE,41,9.0,-999.0,-999,-99.99,,,-99.99,,2013-05-04 03:11:00,
2013-05-03 23:22:00,47.0,-99.9,30.35,NNE,32,11.0,-999.0,-999,-99.99,,,-99.99,,2013-05-04 03:22:00,
2013-05-03 23:33:00,47.0,-99.9,30.35,NNE,32,11.0,-999.0,-999,-99.99,,,-99.99,,2013-05-04 03:33:00,
2013-05-03 23:43:00,47.0,-99.9,30.35,NNE,32,11.0,-999.0,-999,-99.99,,,-99.99,,2013-05-04 03:43:00,
2013-05-03 23:53:00,47.0,-99.9,30.34,NNE,33,9.0,-999.0,-999,-99.99,,,-99.99,,2013-05-04 03:53:00,